• In Belgium
  • List of Countries
  • For 7 days
  • Water Temperature
  • Satellite Maps
  • Weather Map
  • Weather Widgets
  • user-avatar
    Login

    Hourly Weather Brisbane

    Today, 18 September, Tuesday

    Time Temperature Precipitation Wind Pressure Humidity
    00:00 +14°C° 0 mm 3 mps 765 mmHg 81%
    01:00 +14°C° 0 mm 3 mps 765 mmHg 82%
    02:00 +14°C° 0 mm 2 mps 765 mmHg 82%
    03:00 +14°C° 0 mm 2 mps 765 mmHg 83%
    04:00 +14°C° 0 mm 2 mps 765 mmHg 83%
    05:00 +15°C° 0 mm 2 mps 765 mmHg 80%
    06:00 +15°C° 0 mm 1 mps 765 mmHg 76%
    07:00 +16°C° 0 mm 1 mps 765 mmHg 73%
    08:00 +18°C° 0 mm 2 mps 765 mmHg 63%
    09:00 +21°C° 0 mm 2 mps 765 mmHg 54%
    10:00 +25°C° 0 mm 1 mps 765 mmHg 42%
    11:00 +26°C° 0 mm 2 mps 764 mmHg 40%
    12:00 +26°C° 0 mm 2 mps 764 mmHg 37%
    13:00 +27°C° 0 mm 2 mps 763 mmHg 35%
    14:00 +26°C° 0 mm 3 mps 763 mmHg 38%
    15:00 +25°C° 0 mm 3 mps 762 mmHg 40%
    16:00 +24°C° 0 mm 3 mps 762 mmHg 45%
    17:00 +22°C° 0 mm 3 mps 762 mmHg 51%
    18:00 +20°C° 0 mm 3 mps 762 mmHg 57%
    19:00 +18°C° 0 mm 3 mps 762 mmHg 63%
    20:00 +18°C° 0 mm 3 mps 763 mmHg 66%
    21:00 +17°C° 0 mm 2 mps 763 mmHg 69%
    22:00 +16°C° 0 mm 2 mps 763 mmHg 73%
    23:00 +16°C° 0 mm 2 mps 763 mmHg 75%

    Tomorrow, 19 September, Wednesday

    Time Temperature Precipitation Wind Pressure Humidity
    00:00 +16°C° 0 mm 2 mps 763 mmHg 77%
    01:00 +15°C° 0 mm 2 mps 763 mmHg 79%
    02:00 +15°C° 0 mm 2 mps 763 mmHg 81%
    03:00 +15°C° 0 mm 2 mps 762 mmHg 83%
    04:00 +14°C° 0 mm 2 mps 762 mmHg 84%
    05:00 +15°C° 0 mm 2 mps 762 mmHg 81%
    06:00 +16°C° 0 mm 2 mps 762 mmHg 78%
    07:00 +16°C° 0 mm 2 mps 762 mmHg 75%
    08:00 +19°C° 0 mm 3 mps 762 mmHg 66%
    09:00 +22°C° 0 mm 3 mps 762 mmHg 57%
    10:00 +25°C° 0 mm 3 mps 762 mmHg 48%
    11:00 +26°C° 0 mm 4 mps 761 mmHg 45%
    12:00 +28°C° 0 mm 4 mps 760 mmHg 42%
    13:00 +29°C° 0 mm 4 mps 759 mmHg 39%
    14:00 +28°C° 0 mm 4 mps 759 mmHg 41%
    15:00 +28°C° 0 mm 5 mps 759 mmHg 43%
    16:00 +27°C° 0 mm 5 mps 758 mmHg 46%
    17:00 +25°C° 0 mm 5 mps 758 mmHg 54%
    18:00 +23°C° 0 mm 5 mps 759 mmHg 63%
    19:00 +21°C° 0 mm 5 mps 759 mmHg 71%
    20:00 +20°C° 0 mm 4 mps 759 mmHg 74%
    21:00 +19°C° 0 mm 4 mps 759 mmHg 77%
    22:00 +19°C° 0 mm 4 mps 759 mmHg 80%
    23:00 +19°C° 0 mm 4 mps 759 mmHg 79%

    Day after tomorrow, 20 September, Thursday

    Time Temperature Precipitation Wind Pressure Humidity
    00:00 +19°C° 0 mm 3 mps 759 mmHg 77%
    01:00 +19°C° 0 mm 3 mps 759 mmHg 75%
    02:00 +18°C° 0 mm 3 mps 758 mmHg 76%
    03:00 +18°C° 0 mm 3 mps 758 mmHg 76%
    04:00 +18°C° 0 mm 3 mps 758 mmHg 77%
    05:00 +18°C° 0 mm 3 mps 758 mmHg 74%
    06:00 +19°C° 0 mm 3 mps 759 mmHg 71%
    07:00 +19°C° 0 mm 3 mps 759 mmHg 69%
    08:00 +22°C° 0 mm 3 mps 759 mmHg 59%
    09:00 +25°C° 0 mm 2 mps 759 mmHg 49%
    10:00 +28°C° 0 mm 2 mps 760 mmHg 40%
    11:00 +29°C° 0.1 mm 3 mps 759 mmHg 38%
    12:00 +29°C° 0.1 mm 4 mps 759 mmHg 37%
    13:00 +29°C° 0.1 mm 5 mps 758 mmHg 36%
    14:00 +29°C° 0.1 mm 5 mps 758 mmHg 38%
    15:00 +28°C° 0.1 mm 5 mps 758 mmHg 40%
    16:00 +27°C° 0.1 mm 5 mps 758 mmHg 42%
    17:00 +25°C° 0.7 mm 5 mps 759 mmHg 52%
    18:00 +21°C° 0.7 mm 4 mps 760 mmHg 61%
    19:00 +19°C° 0.7 mm 4 mps 761 mmHg 70%
    20:00 +18°C° 0.4 mm 4 mps 761 mmHg 72%
    21:00 +17°C° 0.4 mm 4 mps 762 mmHg 74%
    22:00 +17°C° 0.4 mm 4 mps 763 mmHg 75%
    23:00 +15°C° 0.2 mm 5 mps 763 mmHg 78%

    21 September, Friday

    Time Temperature Precipitation Wind Pressure Humidity
    00:00 +15°C° 0.2 mm 5 mps 763 mmHg 81%
    01:00 +14°C° 0.2 mm 5 mps 763 mmHg 84%
    02:00 +14°C° 0.1 mm 5 mps 764 mmHg 84%
    03:00 +14°C° 0.1 mm 5 mps 764 mmHg 84%
    04:00 +14°C° 0.1 mm 6 mps 764 mmHg 84%
    05:00 +14°C° 0.2 mm 6 mps 765 mmHg 81%
    06:00 +15°C° 0.2 mm 6 mps 765 mmHg 78%
    07:00 +15°C° 0.2 mm 6 mps 766 mmHg 75%
    08:00 +17°C° 0.2 mm 6 mps 766 mmHg 67%
    09:00 +20°C° 0.2 mm 6 mps 766 mmHg 59%
    10:00 +21°C° 0.2 mm 6 mps 767 mmHg 51%
    11:00 +22°C° 0.2 mm 6 mps 766 mmHg 50%
    12:00 +22°C° 0.2 mm 6 mps 766 mmHg 49%
    13:00 +22°C° 0.2 mm 6 mps 765 mmHg 48%
    14:00 +22°C° 0 mm 6 mps 765 mmHg 48%
    15:00 +22°C° 0 mm 6 mps 765 mmHg 48%
    16:00 +22°C° 0 mm 6 mps 765 mmHg 47%
    17:00 +20°C° 0 mm 5 mps 766 mmHg 52%
    18:00 +19°C° 0 mm 5 mps 766 mmHg 57%
    19:00 +18°C° 0 mm 4 mps 767 mmHg 61%
    20:00 +17°C° 0 mm 4 mps 767 mmHg 65%
    21:00 +15°C° 0 mm 4 mps 768 mmHg 68%
    22:00 +15°C° 0 mm 4 mps 768 mmHg 72%
    23:00 +14°C° 0.1 mm 4 mps 768 mmHg 74%

    22 September, Saturday

    Time Temperature Precipitation Wind Pressure Humidity
    00:00 +14°C° 0.1 mm 4 mps 768 mmHg 76%
    01:00 +13°C° 0.1 mm 3 mps 768 mmHg 78%
    02:00 +13°C° 0.1 mm 3 mps 767 mmHg 80%
    03:00 +13°C° 0.1 mm 3 mps 767 mmHg 82%
    04:00 +13°C° 0.1 mm 3 mps 767 mmHg 83%
    05:00 +13°C° 0.1 mm 3 mps 768 mmHg 80%
    06:00 +14°C° 0.1 mm 3 mps 768 mmHg 77%
    07:00 +16°C° 0.1 mm 3 mps 769 mmHg 74%
    08:00 +18°C° 0 mm 3 mps 768 mmHg 65%
    09:00 +21°C° 0 mm 4 mps 768 mmHg 56%
    10:00 +23°C° 0 mm 4 mps 768 mmHg 47%
    11:00 +23°C° 0 mm 4 mps 767 mmHg 45%
    12:00 +25°C° 0 mm 4 mps 767 mmHg 43%
    13:00 +26°C° 0 mm 4 mps 766 mmHg 42%
    14:00 +25°C° 0 mm 4 mps 766 mmHg 45%
    15:00 +23°C° 0 mm 4 mps 765 mmHg 47%
    16:00 +23°C° 0 mm 4 mps 765 mmHg 50%
    17:00 +21°C° 0 mm 3 mps 766 mmHg 57%
    18:00 +20°C° 0 mm 3 mps 766 mmHg 64%
    19:00 +18°C° 0 mm 3 mps 767 mmHg 71%
    20:00 +18°C° 0 mm 2 mps 767 mmHg 73%
    21:00 +17°C° 0 mm 2 mps 767 mmHg 76%
    22:00 +18°C° 0 mm 1 mps 767 mmHg 78%
    23:00 +18°C° 0 mm 1 mps 767 mmHg 79%

    23 September, Sunday

    Time Temperature Precipitation Wind Pressure Humidity
    00:00 +16°C° 0 mm 1 mps 767 mmHg 81%
    01:00 +16°C° 0 mm 1 mps 766 mmHg 82%
    02:00 +16°C° 0 mm 1 mps 766 mmHg 83%
    03:00 +16°C° 0 mm 1 mps 766 mmHg 84%
    04:00 +16°C° 0 mm 1 mps 766 mmHg 85%
    05:00 +16°C° 0 mm 1 mps 766 mmHg 82%
    06:00 +18°C° 0 mm 1 mps 766 mmHg 79%
    07:00 +18°C° 0 mm 1 mps 767 mmHg 76%
    08:00 +22°C° 0 mm 1 mps 766 mmHg 65%
    09:00 +25°C° 0 mm 1 mps 766 mmHg 53%
    10:00 +26°C° 0 mm 0 mps 766 mmHg 42%
    11:00 +28°C° 0 mm 1 mps 765 mmHg 39%
    12:00 +29°C° 0 mm 1 mps 764 mmHg 37%
    13:00 +30°C° 0 mm 2 mps 763 mmHg 34%
    14:00 +29°C° 0 mm 3 mps 763 mmHg 37%
    15:00 +28°C° 0 mm 3 mps 763 mmHg 41%
    16:00 +27°C° 0 mm 4 mps 762 mmHg 45%
    17:00 +23°C° 0 mm 4 mps 763 mmHg 53%
    18:00 +21°C° 0 mm 3 mps 763 mmHg 62%
    19:00 +19°C° 0 mm 3 mps 764 mmHg 70%
    20:00 +19°C° 0 mm 2 mps 764 mmHg 74%
    21:00 +18°C° 0 mm 2 mps 764 mmHg 77%
    22:00 +18°C° 0 mm 1 mps 765 mmHg 80%
    23:00 +18°C° 0 mm 1 mps 764 mmHg 82%
    Show more